UAL102 CYTZ-KMDW

Flight info

Callsign UAL102
Flight time N/A
Altitude 40000
Route PERLO4 DERLO DCT QWERI DCT BAGEL PANGG7
Aircraft CRJ7/M-SDFGIRWY/S

Departure

Time 2026-04-30 13:32
Airport Billy Bishop Toronto City Airport (CYTZ)

Arrival

Time N/A
Airport Chicago Midway International Airport (KMDW)
Time Latitude Longitude Altitude Speed Heading
2026-04-30 13:02 43.63077 -79.39534 258 ft 0 kts 343°
2026-04-30 13:20 43.63057 -79.39522 258 ft 4 kts 310°
2026-04-30 13:20 43.63047 -79.39490 258 ft 4 kts 270°
2026-04-30 13:20 43.63050 -79.39462 259 ft 2 kts 251°
2026-04-30 13:26 43.63047 -79.39474 258 ft 7 kts 251°
2026-04-30 13:27 43.63001 -79.39659 259 ft 12 kts 251°
2026-04-30 13:28 43.62937 -79.39967 257 ft 5 kts 251°
2026-04-30 13:28 43.62933 -79.39984 257 ft 0 kts 251°
2026-04-30 13:29 43.62935 -79.40057 255 ft 11 kts 310°
2026-04-30 13:29 43.62889 -79.40257 253 ft 16 kts 221°
2026-04-30 13:30 43.62770 -79.40338 254 ft 7 kts 175°
2026-04-30 13:31 43.62748 -79.40295 255 ft 7 kts 72°
2026-04-30 13:31 43.63182 -79.38605 331 ft 141 kts 70°
2026-04-30 13:32 43.62587 -79.36106 1066 ft 161 kts 149°
2026-04-30 13:32 43.60542 -79.35214 1716 ft 183 kts 204°
2026-04-30 13:33 43.58784 -79.38280 2259 ft 241 kts 221°
2026-04-30 13:33 43.55185 -79.38647 2843 ft 303 kts 160°
2026-04-30 13:34 43.53048 -79.38091 3114 ft 328 kts 185°
2026-04-30 13:34 43.46800 -79.41349 3822 ft 291 kts 228°
2026-04-30 13:35 43.45803 -79.43587 4038 ft 270 kts 249°
2026-04-30 13:35 43.44813 -79.47062 6857 ft 179 kts 250°